Weather in Karlivka

Ukraine / Poltava Region     49°27′18″N   35°08′04″E
temp.,
°C
wind,
m/s
gust,
m/s
humid.,
%
clouds,
%
prec.,
mm/h
press.,
hPa
HPBL,
m
15 may, sat
sat1500:00+13ssw49840 0.0 1010159
03:00+11ssw35913 0.0 101185
06:00+11s37872 0.0 1012154
09:00+17ssw476675 0.0 1012504
12:00+21ssw58522 0.0 10132024
15:00+22ssw5849100 0.0 10122440
18:00+20s347074 0.1 101293
21:00+17sse347295 0.1 101357
16 may, sun
sun1600:00+16ssw2274100 0.0 101322
03:00+14sse22803 0.0 101311
06:00+14sse22770 0.0 101312
09:00+20ese125910 0.0 1014392
12:00+23ene3345100 0.0 10131670
15:00+25ene3442100 0.0 10111768
18:00+24ne366044 0.0 1010543
21:00+18ne358237 0.4 100982
17 may, mon
mon1700:00+17ene4891100 0.5 1008127
03:00+15ene4886100 0.5 1007131
06:00+15e4986100 0.0 1006189
09:00+19e5776100 0.0 1005273
12:00+21sw4672100 0.3 1005384
15:00+25se5754100 0.3 10051327
18:00+24ssw126732 0.0 100473
21:00+19sse228493 0.1 100415
18 may, tue
tue1800:00+17ssw37955 0.4 1005146
03:00+16sw4898100 1.4 1005509
06:00+15sw4796100 0.1 1007337
09:00+18sw567938 0.1 1008847
12:00+21ssw676417 1.7 10081361
15:00+23sw58556 3.8 10081978
18:00+18wsw81080100 0.9 1008587
21:00+15sse51189100 3.1 1008279
19 may, wed
wed1900:00+15ssw613930 0.1 1008411
03:00+14sw6139322 0.1 1009405
06:00+13sw499658 0.0 1010319
09:00+15ssw4687100 0.0 1011427
12:00+17sw3478100 0.1 1012649
15:00+16ese0194100 2.7 101153
18:00+18ene3477100 0.0 1010744
21:00+16ese3890100 0.1 1009152